Location: ?????
(55.6500°N, 37.2500°E)
Time: 03:52:24
(UTC+00:00)

Cosmos 494 Rocket - Pass Details

Date: 19 May 2025
Orbit: 737 x 767 km, 74.1° (Epoch: 19 June)

Event Time Altitude Azimuth Distance (km) Brightness Sun altitude
Exits shadow 22:27:55 20° 192° (SSW) 1,687 5.1 -13.3°
Maximum altitude 22:31:29 69° 113° (ESE) 801 4.0 -13.2°
Drops below altitude 10° 22:36:37 10° 31° (NNE) 2,284 7.8 -13.0°
Sets 22:39:01 0° 29° (NNE) 3,217 9.0 -12.9°
